Location: Hurecourt
(47.9030°N, 6.0653°E)
Time: 21:11:19
(UTC+00:00)

Cosmos 1437 Rocket - Pass Details

Date: 14 July 2020
Orbit: 506 x 562 km, 81.2° (Epoch: 14 August)

Event Time Altitude Azimuth Distance (km) Brightness Sun altitude
Rises 02:06:05 0° 337° (NNW) 2,738 6.9 -13.3°
Reaches altitude 10° 02:08:32 10° 325° (NW) 1,829 5.7 -13.1°
Maximum altitude 02:11:52 25° 269° (W) 1,116 4.1 -12.7°
Enters shadow 02:13:32 19° 232° (SW) 1,321 4.2 -12.6°
